Wind_Speed
3 3 3 3 3 4 5 5 6 6 6 6 6 6 7 7 7 7 7 7 7 7 7 7 6 6 6 5 5 4 5 5 5 5 5 5 6 6 7 8 9 9 9 10 10 10 9 9 9
3 3 3 3 3 4 5 5 6 6 7 6 6 6 7 7 7 7 7 7 7 7 7 8 7 7 7 6 6 5 5 5 5 5 6 6 7 7 8 8 9 9 10 10 11 10 10 10 10
2 3 3 4 4 5 5 5 6 6 6 6 6 7 7 8 8 7 7 6 6 6 7 7 7 7 7 7 7 6 6 6 6 6 6 7 9 9 9 9 9 10 10 10 11 11 11 11 11
3 3 3 4 4 4 4 5 6 6 6 6 6 6 7 7 8 8 8 7 7 7 7 8 8 8 8 7 8 7 7 7 7 7 8 8 9 10 11 10 10 10 10 10 10 11 11 11 12
2 3 3 4 4 5 4 5 6 6 6 6 6 6 6 6 7 8 8 8 7 7 7 7 7 7 8 8 8 7 7 8 8 8 8 8 8 8 9 10 10 10 10 10 11 11 11 11 11
2 3 3 4 4 4 5 5 6 6 5 6 6 6 5 6 5 6 7 7 7 7 6 7 7 7 7 8 8 7 7 7 8 8 8 7 6 7 8 10 10 10 11 11 11 11 12 11 11
2 2 3 4 4 4 4 4 4 5 5 5 5 5 5 5 4 4 5 6 6 6 6 6 6 7 7 7 7 7 7 7 7 7 7 7 6 6 7 9 10 11 11 11 11 12 12 12 12
2 2 3 3 3 3 3 2 3 3 4 4 4 4 4 4 4 4 4 4 5 5 6 6 7 7 7 7 7 7 7 7 7 7 7 7 7 7 7 9 10 10 11 12 12 12 13 12 12
2 2 2 3 3 3 2 2 2 2 3 4 4 4 4 4 4 4 4 5 5 5 6 6 7 7 7 7 7 7 7 7 7 7 7 7 7 8 8 9 9 10 11 12 13 13 13 13 12
2 2 2 3 3 3 2 2 2 3 3 3 3 3 3 4 4 4 4 4 4 4 4 5 5 6 7 8 8 7 7 7 7 7 7 7 8 8 9 10 10 11 11 11 12 12 13 13 13
3 3 3 3 3 3 3 3 3 2 3 3 3 3 4 3 3 4 4 4 4 4 4 4 5 5 5 5 6 7 7 7 7 8 8 8 9 9 9 10 10 11 12 12 12 12 13 14 13
4 4 4 3 3 3 3 3 3 3 3 4 4 4 4 4 4 4 4 4 4 4 4 4 4 4 5 5 5 5 6 6 6 7 7 7 8 9 10 10 10 10 11 11 12 13 13 13 13
4 4 4 4 4 4 4 3 4 4 4 4 5 5 5 5 5 5 5 5 5 5 5 5 5 4 4 5 5 5 5 5 6 6 6 7 7 8 9 10 10 10 11 11 11 12 12 13 13
4 4 5 5 5 4 4 4 5 5 5 5 5 5 6 5 5 5 5 5 5 5 5 5 5 5 5 5 5 4 4 5 6 6 6 7 7 8 8 9 10 10 10 10 10 11 11 12 13
4 5 5 5 6 6 5 5 5 5 6 6 6 6 6 6 6 6 6 6 6 6 6 6 6 6 6 6 5 5 5 6 6 6 7 8 8 8 9 9 10 10 10 10 11 11 11 11 12
5 5 6 6 6 6 6 6 6 6 7 7 7 7 7 7 8 7 7 6 6 6 6 6 6 6 7 7 7 6 6 7 7 7 8 8 9 9 9 9 10 10 11 11 10 11 11 11 12
6 6 7 7 7 7 7 7 8 8 8 8 8 8 8 8 9 8 8 7 7 7 7 8 7 7 7 7 8 7 8 8 8 8 8 9 9 9 9 10 10 10 10 10 10 11 11 11 12
7 8 8 9 8 9 9 9 9 9 8 8 8 8 9 9 9 9 9 9 9 9 9 9 9 9 9 8 8 8 8 8 8 9 9 9 9 9 9 10 10 10 11 11 11 11 11 11 12
8 9 9 10 10 10 10 10 10 10 9 9 9 9 9 9 10 10 10 10 10 10 10 10 10 10 10 10 9 9 9 9 10 10 10 10 10 11 10 10 10 10 11 11 11 12 12 12 12
9 9 10 10 10 10 10 10 10 11 11 11 10 10 10 11 11 11 11 11 11 12 12 12 11 11 11 11 11 11 11 11 11 11 11 11 11 12 12 11 11 11 11 11 12 12 12 13 13
10 10 10 11 11 11 10 11 11 11 12 12 11 11 11 11 12 12 13 13 13 13 13 13 13 13 13 13 13 13 13 13 12 12 12 12 12 12 12 12 12 12 12 12 12 12 12 13 13
11 11 10 11 11 12 12 12 11 12 12 12 12 13 12 12 13 13 13 14 14 14 14 14 14 14 14 14 14 14 14 14 14 14 14 13 13 12 12 13 13 13 12 12 12 12 12 13 13
11 11 11 11 11 12 12 12 12 12 12 12 13 13 14 14 14 14 14 14 15 15 15 15 15 15 15 15 15 15 15 15 15 15 15 14 13 13 13 13 13 13 13 13 13 13 13 13 13
12 11 12 11 12 12 12 12 12 12 12 13 13 13 14 14 15 15 15 15 15 15 16 16 16 16 16 16 16 16 16 16 16 16 16 15 15 15 15 15 14 14 14 14 14 13 13 13 13
12 12 12 12 12 12 12 13 12 12 12 12 13 13 14 14 15 15 15 16 16 16 16 17 17 16 16 16 16 16 17 17 17 17 17 17 17 17 16 16 15 15 15 14 14 14 14 14 14
13 13 13 13 12 13 13 14 13 12 12 12 13 13 14 14 14 14 14 15 15 16 16 17 17 17 16 16 16 17 17 18 18 18 18 18 18 18 18 17 16 16 16 15 15 15 15 15 15
13 13 13 13 14 14 14 14 14 14 13 13 13 13 13 13 14 14 15 15 16 16 16 17 17 17 17 17 17 18 18 18 18 18 19 19 19 19 18 18 18 18 17 17 17 17 17 17 17
13 13 14 14 15 15 14 14 15 15 14 14 14 14 14 14 15 15 16 16 16 17 17 17 18 18 18 18 18 18 18 19 19 19 19 19 19 19 19 19 19 18 18 18 18 18 18 18 18
14 14 14 15 15 15 15 15 15 15 14 14 14 15 15 15 16 16 17 17 17 17 17 18 18 18 19 19 19 19 19 19 19 20 20 19 19 19 19 19 19 18 18 18 18 18 18 18 18
15 15 15 16 16 16 16 16 17 16 16 15 15 15 15 16 16 17 17 17 17 17 17 17 18 19 19 19 20 20 20 20 20 20 20 19 18 18 18 18 18 18 18 19 19 18 18 18 18
Wind_Direction
250 245 235 227 228 230 228 229 236 240 238 239 240 235 231 231 231 232 234 234 239 242 243 244 245 250 256 254 255 252 254 259 260 256 256 257 253 248 244 238 234 232 229 228 228 230 234 237 237
252 246 243 238 231 240 236 235 239 242 244 243 240 237 233 234 234 232 233 237 241 242 246 247 248 254 258 254 254 251 251 258 260 262 262 259 253 251 250 246 242 238 235 233 231 232 235 238 235
254 247 241 240 238 243 243 240 241 245 244 242 237 235 238 239 238 235 235 238 241 243 248 249 252 254 256 252 252 253 253 258 259 262 264 264 259 252 247 246 245 242 243 240 236 236 239 240 238
243 247 252 247 242 243 247 254 252 247 248 245 239 238 237 241 244 241 240 239 241 245 249 251 253 256 258 252 250 255 254 257 262 263 266 269 266 257 249 243 243 242 244 245 241 241 243 243 241
251 250 264 255 250 251 255 259 256 253 253 247 240 239 238 239 242 240 240 238 239 243 246 250 255 258 257 254 252 251 256 259 262 266 268 274 275 263 248 244 246 245 245 247 245 245 246 243 243
277 254 253 259 257 254 258 255 249 251 250 244 243 253 259 248 245 242 239 238 240 244 248 251 253 256 257 255 254 254 260 262 264 267 269 275 276 261 241 242 247 248 250 249 247 247 247 245 242
279 257 242 249 254 255 253 248 245 237 239 239 244 249 250 247 245 241 240 239 242 248 253 257 258 258 258 258 255 256 260 264 266 268 270 273 270 255 245 245 249 249 247 246 244 247 246 244 243
276 265 253 252 250 255 258 247 236 226 231 233 238 240 245 245 242 234 234 237 240 247 253 259 260 259 260 262 258 259 263 266 266 269 272 270 265 258 254 253 252 249 248 247 246 248 246 244 245
274 259 249 245 246 249 250 245 240 240 237 231 227 233 238 238 236 235 237 240 239 241 248 252 255 254 257 261 265 266 266 268 267 269 270 270 265 261 256 254 250 251 251 250 248 248 248 246 245
256 240 243 243 247 248 251 245 245 252 244 227 222 227 232 236 237 242 242 242 246 250 253 253 258 256 257 259 261 265 265 267 270 271 273 271 270 266 260 257 256 255 255 253 251 250 250 249 246
247 239 240 242 246 250 254 249 248 246 238 226 226 231 233 238 242 244 244 246 249 250 258 267 268 264 265 266 266 265 268 271 273 274 276 273 273 271 266 261 260 259 257 255 254 252 249 250 248
257 246 244 250 248 254 256 246 240 240 232 232 237 240 243 241 246 248 247 244 244 248 256 261 265 269 272 277 272 268 271 278 280 281 281 280 276 273 265 262 263 262 262 259 256 254 252 249 249
266 260 254 258 259 262 259 257 250 244 242 247 248 251 252 256 258 256 257 250 248 250 253 262 262 264 273 275 274 272 275 282 287 291 286 286 283 277 271 266 263 264 266 264 262 258 254 253 249
264 260 256 261 265 261 257 258 257 251 253 254 251 250 251 257 257 258 259 260 261 259 256 261 264 267 271 272 272 275 281 288 295 297 294 293 290 285 277 271 268 267 266 263 260 261 258 255 249
268 263 258 257 258 260 257 256 259 259 257 256 252 248 250 255 259 260 262 263 265 265 265 269 267 265 263 268 272 277 285 288 290 294 296 296 295 292 287 278 273 271 267 264 263 261 260 258 254
268 265 261 258 258 259 258 261 266 265 262 258 256 251 250 253 256 259 261 263 266 268 269 272 270 267 267 270 273 278 285 288 287 289 293 296 297 296 293 289 282 279 275 270 264 260 260 259 258
269 265 263 262 264 263 264 265 267 267 265 262 259 258 256 254 253 257 261 264 266 271 272 273 273 272 274 276 273 275 283 288 290 290 291 293 294 295 295 294 290 285 281 278 271 266 261 261 262
272 266 264 263 264 264 264 266 267 267 265 261 258 257 259 258 256 258 262 264 267 270 272 273 274 275 275 276 275 275 279 284 287 288 289 290 291 292 292 294 293 286 280 280 279 275 269 265 263
268 265 262 263 263 263 265 267 265 265 264 261 258 258 261 262 262 262 264 267 268 270 272 272 271 272 273 274 275 276 278 281 285 287 286 287 288 287 288 290 291 287 282 278 277 275 271 266 262
269 267 264 264 262 263 264 265 264 262 261 260 257 259 262 265 265 264 264 266 267 270 274 274 273 272 273 275 275 276 278 281 284 287 287 287 287 286 285 286 287 286 283 279 276 274 271 266 260
267 268 267 266 263 263 263 263 264 262 261 259 259 261 263 265 266 265 265 267 269 270 272 273 273 272 272 274 276 276 276 278 281 282 284 285 285 284 282 283 285 284 282 278 277 276 274 268 265
266 266 266 266 266 265 264 264 262 263 264 262 261 261 263 264 266 268 267 267 270 271 272 272 272 273 273 271 272 274 275 277 279 279 279 281 282 283 281 280 282 281 279 278 278 278 277 274 270
265 264 265 266 264 264 264 263 263 261 263 263 263 262 262 263 266 268 268 269 271 272 272 270 271 272 271 270 270 272 274 276 277 277 277 278 280 281 281 280 279 277 275 276 276 276 277 276 273
264 263 264 266 262 261 261 261 265 262 264 266 265 265 264 263 266 269 270 271 272 273 273 271 272 273 273 271 269 270 273 276 276 275 275 277 278 278 278 278 276 276 274 275 275 274 274 273 272
262 262 265 267 263 261 260 260 265 263 264 267 268 268 269 267 266 269 272 272 272 274 274 273 274 273 274 274 270 271 273 275 275 275 275 276 277 276 275 275 274 273 273 273 274 274 273 272 271
263 262 261 263 265 267 265 263 265 265 265 268 270 270 270 270 268 270 272 274 273 274 274 273 273 273 273 273 272 272 273 273 274 275 275 275 275 275 275 274 275 274 273 272 272 273 273 272 271
262 261 261 262 265 268 267 265 264 266 266 268 270 270 270 271 268 270 273 274 274 274 274 274 273 273 273 273 274 273 275 276 274 275 276 276 275 274 274 274 275 274 274 273 272 272 272 272 271
261 260 259 261 265 267 266 266 264 266 269 267 268 269 270 271 269 271 273 274 274 273 273 274 275 274 273 272 274 273 275 276 277 277 276 275 274 274 273 273 273 273 275 273 272 271 271 271 272
261 260 260 263 265 267 268 267 269 270 270 269 269 269 270 272 270 273 273 274 275 274 275 276 276 275 274 274 275 276 275 275 277 278 277 275 274 274 274 274 273 273 274 273 273 274 270 270 271
259 261 263 264 266 265 267 269 271 271 270 270 271 270 271 274 273 273 274 274 275 275 277 278 278 277 276 275 275 275 274 274 276 277 277 276 273 272 273 275 274 273 274 274 274 274 271 270 271
Height
5863 5863 5864 5865 5866 5866 5866 5867 5866 5866 5866 5866 5866 5867 5867 5868 5869 5871 5868 5867 5867 5867 5867 5867 5867 5866 5866 5866 5866 5866 5865 5865 5864 5864 5863 5863 5863 5863 5862 5863 5863 5863 5864 5864 5865 5866 5866 5867 5867
5862 5863 5864 5865 5865 5865 5866 5865 5865 5865 5865 5865 5865 5865 5866 5866 5866 5866 5866 5866 5866 5866 5866 5866 5866 5865 5865 5865 5865 5864 5864 5864 5863 5863 5862 5861 5861 5861 5861 5861 5861 5862 5862 5863 5863 5864 5864 5865 5865
5862 5862 5864 5864 5864 5864 5864 5864 5864 5864 5864 5864 5864 5864 5864 5865 5865 5865 5864 5864 5864 5865 5864 5864 5864 5864 5864 5864 5864 5863 5863 5863 5862 5861 5861 5860 5859 5858 5859 5859 5860 5860 5861 5861 5861 5862 5863 5863 5864
5861 5862 5863 5863 5862 5863 5863 5863 5862 5862 5862 5862 5863 5863 5863 5863 5863 5863 5863 5863 5863 5863 5863 5863 5863 5863 5863 5862 5862 5862 5862 5861 5861 5860 5859 5858 5856 5854 5855 5856 5858 5858 5859 5860 5860 5861 5861 5862 5862
5860 5861 5862 5861 5861 5861 5861 5861 5861 5861 5861 5861 5861 5861 5861 5861 5861 5861 5861 5861 5862 5862 5862 5861 5861 5862 5861 5861 5861 5860 5860 5860 5859 5859 5857 5855 5851 5848 5850 5854 5856 5857 5858 5858 5858 5859 5859 5860 5860
5860 5860 5861 5860 5860 5860 5860 5860 5860 5860 5860 5860 5860 5860 5860 5860 5860 5860 5860 5860 5860 5860 5860 5860 5860 5860 5860 5859 5859 5859 5859 5858 5858 5857 5856 5854 5849 5846 5849 5852 5854 5855 5856 5856 5857 5857 5858 5858 5858
5859 5859 5859 5859 5859 5859 5859 5859 5859 5859 5859 5859 5859 5859 5858 5858 5858 5858 5858 5858 5858 5858 5858 5858 5859 5859 5859 5858 5858 5858 5857 5857 5856 5856 5855 5853 5851 5850 5850 5852 5853 5853 5854 5854 5855 5855 5856 5856 5857
5858 5859 5858 5858 5858 5858 5858 5858 5858 5858 5858 5858 5858 5858 5858 5858 5857 5857 5857 5857 5857 5858 5858 5857 5857 5857 5857 5857 5857 5857 5856 5856 5855 5855 5854 5853 5852 5851 5851 5851 5852 5852 5852 5852 5853 5853 5853 5854 5854
5857 5859 5857 5857 5857 5857 5857 5857 5857 5857 5857 5857 5857 5857 5857 5856 5856 5857 5856 5856 5856 5856 5856 5856 5856 5856 5856 5856 5856 5855 5855 5855 5854 5853 5853 5852 5851 5851 5851 5850 5850 5850 5850 5850 5850 5851 5851 5852 5852
5856 5856 5856 5856 5856 5856 5856 5856 5856 5856 5856 5856 5856 5856 5856 5856 5856 5856 5856 5856 5856 5855 5855 5855 5855 5855 5855 5855 5854 5854 5854 5853 5853 5852 5851 5851 5850 5849 5849 5849 5849 5848 5848 5848 5848 5848 5849 5849 5850
5855 5855 5855 5855 5855 5855 5855 5855 5855 5855 5855 5856 5856 5856 5855 5855 5855 5855 5855 5855 5855 5855 5855 5854 5854 5854 5854 5853 5853 5853 5853 5852 5852 5851 5850 5849 5849 5848 5847 5847 5847 5846 5846 5846 5846 5846 5846 5846 5847
5853 5853 5854 5854 5854 5854 5854 5854 5854 5855 5855 5855 5855 5855 5855 5854 5854 5854 5854 5854 5854 5854 5854 5853 5853 5853 5853 5852 5852 5852 5851 5851 5851 5850 5849 5848 5847 5847 5846 5845 5845 5844 5844 5843 5843 5844 5844 5844 5844
5852 5852 5852 5853 5853 5853 5853 5853 5854 5854 5854 5854 5854 5854 5853 5853 5853 5853 5853 5853 5853 5853 5853 5852 5852 5852 5852 5851 5851 5851 5850 5850 5849 5848 5848 5847 5846 5845 5844 5843 5843 5842 5842 5841 5841 5841 5841 5841 5842
5851 5851 5851 5851 5852 5852 5852 5852 5852 5852 5852 5852 5852 5852 5852 5852 5852 5852 5852 5852 5852 5852 5851 5851 5851 5851 5850 5850 5850 5850 5849 5848 5848 5847 5846 5845 5844 5843 5842 5841 5841 5840 5839 5839 5839 5839 5839 5839 5839
5849 5850 5850 5850 5850 5850 5851 5851 5851 5851 5851 5851 5851 5851 5851 5851 5851 5851 5850 5850 5850 5850 5850 5850 5849 5849 5849 5849 5849 5848 5848 5847 5846 5846 5845 5844 5843 5842 5840 5840 5839 5838 5837 5837 5837 5836 5836 5836 5837
5848 5849 5849 5849 5849 5849 5851 5850 5849 5849 5849 5849 5849 5849 5849 5849 5849 5849 5849 5849 5849 5849 5849 5848 5848 5848 5848 5847 5847 5847 5846 5845 5845 5844 5843 5842 5841 5840 5839 5838 5837 5836 5835 5835 5835 5834 5834 5834 5834
5847 5847 5847 5847 5847 5847 5848 5848 5847 5847 5847 5847 5847 5847 5847 5847 5847 5847 5847 5847 5847 5847 5847 5847 5846 5846 5846 5846 5845 5845 5844 5844 5843 5843 5842 5841 5840 5838 5837 5836 5835 5834 5833 5833 5832 5832 5832 5831 5831
5845 5845 5845 5845 5845 5845 5845 5845 5845 5845 5845 5845 5845 5845 5845 5845 5845 5845 5845 5845 5845 5845 5845 5845 5845 5844 5844 5844 5844 5843 5843 5842 5841 5841 5840 5839 5838 5837 5835 5834 5833 5832 5831 5831 5830 5830 5829 5829 5829
5842 5842 5842 5843 5842 5842 5842 5843 5843 5843 5843 5843 5843 5843 5843 5843 5843 5843 5843 5843 5843 5843 5843 5843 5843 5842 5842 5842 5842 5841 5841 5840 5839 5839 5838 5837 5836 5835 5834 5832 5831 5830 5829 5829 5828 5827 5827 5826 5826
5840 5840 5840 5840 5840 5840 5840 5840 5840 5840 5841 5841 5841 5841 5841 5841 5841 5841 5841 5841 5841 5840 5840 5840 5840 5840 5840 5839 5839 5839 5838 5838 5837 5836 5835 5834 5833 5832 5831 5830 5829 5828 5827 5826 5825 5825 5825 5824 5824
5837 5837 5837 5837 5837 5837 5837 5838 5838 5838 5838 5838 5838 5838 5838 5838 5838 5838 5838 5838 5838 5838 5838 5837 5837 5836 5836 5836 5836 5836 5836 5835 5834 5833 5833 5832 5830 5829 5828 5828 5826 5825 5824 5824 5823 5822 5822 5821 5821
5834 5834 5834 5834 5834 5834 5835 5835 5835 5834 5834 5835 5835 5835 5835 5835 5835 5835 5835 5834 5834 5834 5834 5834 5834 5833 5833 5833 5833 5832 5832 5832 5831 5830 5830 5829 5828 5826 5825 5825 5823 5822 5821 5821 5820 5820 5819 5818 5818
5831 5831 5831 5830 5830 5831 5831 5831 5832 5831 5831 5831 5831 5831 5831 5831 5831 5831 5831 5831 5831 5830 5830 5830 5830 5830 5829 5829 5829 5828 5828 5828 5827 5827 5826 5825 5824 5823 5822 5821 5820 5819 5818 5818 5817 5816 5816 5815 5815
5826 5827 5827 5827 5827 5828 5828 5828 5828 5828 5828 5828 5828 5827 5827 5827 5827 5827 5827 5827 5827 5827 5826 5826 5826 5826 5825 5825 5825 5824 5824 5824 5823 5823 5822 5821 5820 5819 5818 5817 5816 5816 5815 5814 5813 5813 5812 5812 5812
5823 5823 5824 5824 5824 5824 5824 5824 5825 5824 5824 5824 5824 5823 5823 5823 5823 5823 5823 5823 5823 5822 5822 5822 5822 5821 5821 5821 5820 5820 5820 5819 5819 5818 5818 5817 5816 5815 5814 5813 5812 5812 5811 5810 5810 5809 5809 5808 5808
5819 5819 5820 5821 5821 5821 5820 5820 5821 5820 5820 5820 5820 5819 5819 5819 5819 5819 5819 5819 5818 5818 5818 5817 5817 5817 5816 5816 5816 5815 5815 5815 5814 5813 5813 5812 5811 5810 5809 5808 5808 5807 5807 5806 5806 5805 5805 5804 5804
5815 5815 5816 5816 5816 5816 5816 5816 5817 5816 5816 5816 5815 5815 5815 5815 5815 5814 5814 5814 5814 5814 5813 5813 5812 5812 5812 5811 5811 5811 5810 5809 5809 5808 5807 5807 5806 5805 5804 5804 5803 5802 5802 5802 5801 5801 5800 5800 5799
5811 5811 5811 5811 5811 5812 5812 5812 5812 5811 5812 5812 5811 5810 5810 5810 5810 5810 5810 5810 5809 5809 5808 5808 5808 5807 5807 5806 5806 5806 5805 5804 5803 5803 5802 5801 5800 5800 5799 5798 5798 5797 5797 5796 5796 5796 5795 5795 5794
5807 5807 5807 5807 5808 5808 5808 5810 5808 5807 5807 5807 5807 5806 5806 5806 5805 5805 5805 5805 5804 5804 5803 5803 5802 5802 5801 5801 5800 5800 5799 5799 5798 5797 5796 5795 5794 5794 5793 5793 5792 5792 5792 5791 5791 5790 5790 5790 5789
5802 5802 5803 5803 5803 5803 5803 5807 5803 5802 5802 5802 5802 5801 5801 5801 5800 5800 5799 5799 5799 5798 5798 5797 5797 5796 5796 5795 5795 5794 5793 5793 5792 5791 5790 5789 5789 5788 5788 5788 5787 5787 5786 5786 5785 5785 5785 5784 5784